THY5JA LTFM-LROP

Flight info

Callsign THY5JA
Flight time 0h 44m
Altitude 28000
Route IBLAX1D/35L IBLAX P727 BGS L622 GONGO DCT KOMAN DCT OBUGA
Aircraft A320/M-SDE3FGHIRWY/LB1

Departure

Time 2026-05-04 15:59
Airport İstanbul Airport (LTFM)

Arrival

Time 2026-05-04 16:43
Airport Bucharest Henri Coandă International Airport (LROP)
Time Latitude Longitude Altitude Speed Heading
2026-05-04 15:31 41.26405 28.73573 330 ft 0 kts 74°
2026-05-04 15:33 41.26405 28.73572 334 ft 0 kts 74°
2026-05-04 15:44 41.26405 28.73571 334 ft 0 kts 74°
2026-05-04 15:47 41.26399 28.73547 330 ft 4 kts 75°
2026-05-04 15:47 41.26393 28.73512 332 ft 4 kts 79°
2026-05-04 15:47 41.26389 28.73476 333 ft 4 kts 94°
2026-05-04 15:48 41.26396 28.73447 332 ft 4 kts 150°
2026-05-04 15:48 41.26400 28.73444 330 ft 3 kts 160°
2026-05-04 15:51 41.26392 28.73447 333 ft 5 kts 160°
2026-05-04 15:51 41.26332 28.73475 332 ft 14 kts 161°
2026-05-04 15:51 41.26245 28.73497 333 ft 11 kts 202°
2026-05-04 15:52 41.26219 28.73405 332 ft 12 kts 272°
2026-05-04 15:52 41.26218 28.73278 332 ft 15 kts 268°
2026-05-04 15:52 41.26217 28.73124 332 ft 18 kts 269°
2026-05-04 15:52 41.26216 28.73000 334 ft 8 kts 269°
2026-05-04 15:53 41.26215 28.72970 334 ft 3 kts 269°
2026-05-04 15:53 41.26215 28.72959 334 ft 0 kts 269°
2026-05-04 15:57 41.26215 28.72943 332 ft 6 kts 269°
2026-05-04 15:57 41.26214 28.72874 334 ft 9 kts 269°
2026-05-04 15:57 41.26212 28.72751 334 ft 16 kts 269°
2026-05-04 15:57 41.26210 28.72598 334 ft 14 kts 269°
2026-05-04 15:58 41.26242 28.72525 334 ft 9 kts 356°
2026-05-04 15:58 41.26256 28.72525 332 ft 0 kts 359°
2026-05-04 15:58 41.26264 28.72524 333 ft 4 kts 359°
2026-05-04 15:58 41.26489 28.72519 331 ft 68 kts 359°
2026-05-04 15:59 41.27173 28.72503 334 ft 125 kts 359°
2026-05-04 15:59 41.28190 28.72475 430 ft 160 kts 359°
2026-05-04 15:59 41.29289 28.72448 1155 ft 158 kts 358°
2026-05-04 15:59 41.30385 28.72420 1945 ft 156 kts 360°
2026-05-04 16:00 41.31483 28.72417 2555 ft 166 kts
2026-05-04 16:00 41.32735 28.72436 2835 ft 194 kts
2026-05-04 16:00 41.34075 28.72460 3341 ft 214 kts
2026-05-04 16:01 41.35497 28.72495 3883 ft 232 kts
2026-05-04 16:01 41.37107 28.72531 4769 ft 233 kts
2026-05-04 16:01 41.38698 28.72253 4962 ft 234 kts 340°
2026-05-04 16:01 41.40212 28.71316 5278 ft 247 kts 336°
2026-05-04 16:02 41.41751 28.70324 6367 ft 245 kts 336°
2026-05-04 16:02 41.43284 28.69334 7351 ft 246 kts 337°
2026-05-04 16:02 41.46399 28.67334 9225 ft 252 kts 339°
2026-05-04 16:03 41.47994 28.66314 10107 ft 256 kts 340°
2026-05-04 16:03 41.49665 28.65250 10518 ft 277 kts 340°
2026-05-04 16:03 41.51480 28.64100 10767 ft 301 kts 340°
2026-05-04 16:03 41.53416 28.62868 11198 ft 315 kts 339°
2026-05-04 16:04 41.55415 28.61585 11854 ft 321 kts 339°
2026-05-04 16:04 41.59098 28.57927 13187 ft 344 kts 318°
2026-05-04 16:04 41.60720 28.55530 13833 ft 351 kts 318°
2026-05-04 16:05 41.62375 28.53100 14427 ft 356 kts 318°
2026-05-04 16:05 41.64051 28.50646 15063 ft 359 kts 318°
2026-05-04 16:05 41.67703 28.46087 16300 ft 358 kts 332°
2026-05-04 16:06 41.69130 28.44997 16711 ft 356 kts 339°
2026-05-04 16:06 41.76061 28.41106 18526 ft 365 kts 342°
2026-05-04 16:07 41.78414 28.39791 19070 ft 369 kts 342°
2026-05-04 16:07 41.85608 28.35755 20749 ft 378 kts 342°
2026-05-04 16:08 41.88046 28.34382 21282 ft 381 kts 342°
2026-05-04 16:08 41.95453 28.30139 22780 ft 394 kts 338°
2026-05-04 16:09 41.99828 28.25439 23723 ft 416 kts 315°
2026-05-04 16:09 42.03196 28.18951 24551 ft 426 kts 310°
2026-05-04 16:10 42.06539 28.12318 25392 ft 430 kts 310°
2026-05-04 16:11 42.11617 28.02218 26577 ft 437 kts 309°
2026-05-04 16:11 42.13324 27.98818 26983 ft 440 kts 309°
2026-05-04 16:12 42.18500 27.88484 28022 ft 446 kts 309°
2026-05-04 16:12 42.24493 27.79198 28061 ft 432 kts 329°
2026-05-04 16:13 42.34893 27.71340 28064 ft 428 kts 335°
2026-05-04 16:14 42.45371 27.63627 28068 ft 429 kts 335°
2026-05-04 16:16 42.58478 27.53950 28057 ft 430 kts 332°
2026-05-04 16:17 42.70697 27.42050 28041 ft 433 kts 327°
2026-05-04 16:18 42.80473 27.32421 28044 ft 434 kts 327°
2026-05-04 16:19 42.92680 27.20313 28041 ft 434 kts 327°
2026-05-04 16:20 43.04870 27.08181 28051 ft 434 kts 327°
2026-05-04 16:22 43.17232 26.96394 28035 ft 433 kts 330°
2026-05-04 16:23 43.32386 26.82746 27382 ft 437 kts 328°
2026-05-04 16:24 43.42342 26.73608 25323 ft 422 kts 329°
2026-05-04 16:25 43.47183 26.69171 24097 ft 414 kts 329°
2026-05-04 16:26 43.56559 26.60544 21733 ft 395 kts 329°
2026-05-04 16:26 43.63297 26.54309 20178 ft 383 kts 329°
2026-05-04 16:27 43.67685 26.50248 19183 ft 376 kts 330°
2026-05-04 16:28 43.74118 26.44279 17590 ft 366 kts 330°
2026-05-04 16:28 43.80354 26.38476 15986 ft 355 kts 330°
2026-05-04 16:29 43.88437 26.30948 13814 ft 346 kts 331°
2026-05-04 16:30 43.94336 26.25414 12185 ft 335 kts 331°
2026-05-04 16:31 43.98222 26.21768 11276 ft 339 kts 330°
2026-05-04 16:31 44.03884 26.16305 11042 ft 319 kts 330°
2026-05-04 16:32 44.08978 26.11298 10259 ft 299 kts 330°
2026-05-04 16:33 44.12419 26.07991 9195 ft 300 kts 330°
2026-05-04 16:33 44.15851 26.04738 8316 ft 297 kts 330°
2026-05-04 16:34 44.19261 26.01531 7348 ft 297 kts 330°
2026-05-04 16:34 44.20976 25.99927 6863 ft 297 kts 330°
2026-05-04 16:35 44.26122 25.95177 5730 ft 294 kts 330°
2026-05-04 16:35 44.31131 25.90784 4938 ft 273 kts 330°
2026-05-04 16:36 44.32761 25.89398 4683 ft 275 kts 330°
2026-05-04 16:36 44.36065 25.86668 4169 ft 277 kts 330°
2026-05-04 16:37 44.39467 25.84429 3666 ft 266 kts 351°
2026-05-04 16:37 44.41292 25.84191 3420 ft 261 kts 354°
2026-05-04 16:37 44.44792 25.83806 2917 ft 244 kts 354°
2026-05-04 16:38 44.48116 25.83439 2520 ft 232 kts 354°
2026-05-04 16:39 44.52678 25.83871 2512 ft 222 kts 26°
2026-05-04 16:39 44.54728 25.87040 2537 ft 226 kts 68°
2026-05-04 16:40 44.55210 25.91403 2380 ft 227 kts 83°
2026-05-04 16:40 44.55547 25.95730 1871 ft 214 kts 84°
2026-05-04 16:41 44.55845 25.99584 1410 ft 181 kts 84°
2026-05-04 16:41 44.56123 26.03214 936 ft 144 kts 85°
2026-05-04 16:42 44.56428 26.07228 426 ft 135 kts 85°
2026-05-04 16:43 44.56578 26.09206 319 ft 93 kts 84°
2026-05-04 16:43 44.56690 26.10662 322 ft 58 kts 81°
2026-05-04 16:43 44.56746 26.10801 322 ft 7 kts 341°